Location: Wingville
(42.9917°N, 90.4915°W)
Time: 04:21:01
(UTC+00:00)

X-37B - Pass Details

Date: 03 February 2022
Orbit: 328 x 343 km, 45.0° (Epoch: 12 May)

Event Time Altitude Azimuth Distance (km) Brightness Sun altitude
Rises 01:40:10 0° 285° (WNW) 2,115 5.5 -26.5°
Reaches altitude 10° 01:42:11 10° 285° (WNW) 1,273 4.1 -26.9°
Enters shadow 01:42:36 13° 285° (WNW) 1,103 3.7 -27.0°
